This demonstration page uses our WeatherBlox Daily Observations layout. Learn more.

Left ArrowRight Arrow

39.51506, -84.39828

Hourly Observations for September 4, 2020

Temp ( °F °C ) Dew Point ( °F °C ) Humidity (%) Winds ( mph kmh ) Pressure ( in mb ) Visibility ( mi km ) Precip ( " mm )
12:15 am 00:15 Cloudy 74 23.3 69 20.7 85 85 SW 5 7 29.9 1012 10 16.0934 0 0
12:35 am 00:35 Cloudy 74 23.2 69 20.8 86 86 SW 8 13 29.9 1012 10 16.0934 0 0
12:55 am 00:55 Mostly Cloudy 73 22.9 69 20.8 88 88 SW 7 11 29.9 1012 10 16.0934 0 0
1:15 am 01:15 Clear 72 22.3 69 20.8 91 91 SW 5 7 29.91 1013 10 16.0934 0 0
1:35 am 01:35 Clear 71 21.9 69 20.8 94 94 WSW 3 6 29.91 1013 10 16.0934 0 0
1:55 am 01:55 Partly Cloudy 71 21.8 69 20.8 94 94 WSW 5 7 29.92 1013 10 16.0934 0 0
2:15 am 02:15 Mostly Cloudy 70 21.2 69 20.6 96 96 W 3 6 29.92 1013 10 16.0934 0 0
2:35 am 02:35 Mostly Cloudy 70 21.2 69 20.5 96 96 WNW 3 6 29.93 1014 10 16.0934 0 0
2:55 am 02:55 Clear 71 21.6 67 19.5 88 88 NNW 5 7 29.93 1014 10 16.0934 0 0
3:15 am 03:15 Mostly Cloudy 71 21.4 66 18.7 85 85 N 5 7 29.94 1014 7 11.26538 0 0
3:35 am 03:35 Mostly Cloudy 70 21 64 17.6 81 81 N 5 7 29.95 1014 10 16.0934 0 0
3:55 am 03:55 Mostly Cloudy 69 20.7 63 17.2 80 80 N 5 7 29.96 1015 10 16.0934 0 0
4:15 am 04:15 Cloudy 69 20.6 60 15.6 73 73 N 6 9 29.97 1015 7 11.26538 0 0
4:35 am 04:35 Partly Cloudy 68 19.9 59 15 74 74 N 3 6 29.97 1015 7 11.26538 0 0
4:55 am 04:55 Partly Cloudy 67 19.2 58 14.4 74 74 N 7 11 29.99 1015 7 11.26538 0 0
5:15 am 05:15 Mostly Cloudy 66 18.7 58 14.2 75 75 N 5 7 30 1016 7 11.26538 0 0
5:35 am 05:35 Clear 65 18.3 57 14 76 76 N 5 7 30 1016 7 11.26538 0 0
5:55 am 05:55 Clear 64 17.5 57 13.8 79 79 N 5 7 30 1016 10 16.0934 0 0
6:15 am 06:15 Clear 63 17 56 13.5 80 80 Calm 30.02 1017 10 16.0934 0 0
6:35 am 06:35 Clear 62 16.8 56 13.4 81 81 Calm 30.03 1017 10 16.0934 0 0
6:55 am 06:55 Clear 62 16.6 56 13.4 82 82 Calm 30.04 1017 10 16.0934 0 0
7:15 am 07:15 Sunny 61 16 56 13.4 85 85 Calm 30.05 1018 10 16.0934 0 0
7:35 am 07:35 Sunny 59 15.2 56 13.5 90 90 NNW 3 6 30.07 1018 10 16.0934 0 0
7:55 am 07:55 Sunny 60 15.5 57 13.9 90 90 Calm 30.07 1018 10 16.0934 0 0
8:15 am 08:15 Sunny 62 16.6 57 13.9 84 84 Calm 30.07 1018 10 16.0934 0 0
8:35 am 08:35 Sunny 64 17.6 57 13.8 79 79 Calm 30.07 1018 10 16.0934 0 0
8:55 am 08:55 Sunny 66 19 56 13.4 70 70 Calm 30.08 1019 10 16.0934 0 0
9:15 am 09:15 Sunny 67 19.6 56 13.1 66 66 Calm 30.08 1018 10 16.0934 0 0
9:35 am 09:35 Sunny 69 20.5 55 12.6 61 61 Calm 30.08 1019 10 16.0934 0 0
9:55 am 09:55 Sunny 71 21.4 53 11.9 55 55 ENE 3 6 30.08 1019 10 16.0934 0 0
10:15 am 10:15 Sunny 71 21.7 53 11.6 53 53 NE 6 9 30.09 1019 10 16.0934 0 0
10:35 am 10:35 Sunny 72 22.1 52 11.3 50 50 NE 8 13 30.09 1019 7 11.26538 0 0
10:55 am 10:55 Sunny 73 22.5 53 11.7 51 51 NNE 3 6 30.09 1019 7 11.26538 0 0
11:15 am 11:15 Sunny 73 22.9 52 11.3 48 48 NNE 7 11 30.1 1019 7 11.26538 0 0
11:35 am 11:35 Sunny 73 22.9 52 11.2 48 48 Calm 30.1 1019 10 16.0934 0 0
11:55 am 11:55 Sunny 74 23.2 53 11.4 48 48 SW 3 6 30.1 1019 10 16.0934 0 0
12:15 pm 12:15 Sunny 75 24 53 11.8 46 46 Calm 30.1 1019 10 16.0934 0 0
12:35 pm 12:35 Sunny 76 24.7 53 11.5 44 44 W 7 11 30.09 1019 10 16.0934 0 0
12:55 pm 12:55 Sunny 76 24.7 54 12 45 45 W 6 9 30.08 1019 10 16.0934 0 0
1:15 pm 13:15 Sunny 77 25.1 52 11.2 42 42 WNW 8 13 30.08 1019 10 16.0934 0 0
1:35 pm 13:35 Sunny 77 24.9 52 11.3 43 43 NNW 3 6 30.07 1018 7 11.26538 0 0
1:55 pm 13:55 Sunny 79 25.9 53 11.5 41 41 W 8 13 30.07 1018 10 16.0934 0 0
2:15 pm 14:15 Sunny 78 25.4 52 11 41 41 WNW 6 9 30.08 1019 10 16.0934 0 0
2:35 pm 14:35 Sunny 79 25.9 51 10.6 38 38 WNW 12 19 30.08 1019 10 16.0934 0 0
2:55 pm 14:55 Sunny 77 25.2 51 10.7 40 40 NNW 9 15 30.07 1018 7 11.26538 0 0
3:15 pm 15:15 Sunny 78 25.8 51 10.6 39 39 WNW 10 17 30.08 1019 10 16.0934 0 0
3:35 pm 15:35 Hazy 79 26 54 12 42 42 W 14 22 30.08 1019 7 11.26538 0 0
3:55 pm 15:55 Hazy 79 25.9 53 11.7 41 41 W 10 17 30.07 1018 7 11.26538 0 0
4:15 pm 16:15 Partly Cloudy 79 26.3 53 11.8 40 40 W 7 11 30.07 1018 10 16.0934 0 0
4:35 pm 16:35 Sunny 80 26.4 53 11.8 40 40 WNW 10 17 30.08 1019 10 16.0934 0 0
4:55 pm 16:55 Partly Cloudy 80 26.6 52 11.1 38 38 W 12 19 30.08 1019 10 16.0934 0 0
5:15 pm 17:15 Partly Cloudy 79 26.2 51 10.6 38 38 W 15 24 30.08 1019 10 16.0934 0 0
5:35 pm 17:35 Partly Cloudy 79 26 51 10.3 37 37 W 14 22 30.08 1019 10 16.0934 0 0
5:55 pm 17:55 Partly Cloudy 76 24.4 50 10.2 41 41 WNW 12 19 30.09 1019 10 16.0934 0 0
6:15 pm 18:15 Sunny 78 25.5 50 10.2 38 38 NW 10 17 30.09 1019 7 11.26538 0 0
6:35 pm 18:35 Hazy 77 25 50 9.8 38 38 NW 8 13 30.1 1019 5 8.0467 0 0
6:55 pm 18:55 Sunny 76 24.5 48 8.9 37 37 NW 8 13 30.1 1019 7 11.26538 0 0
7:15 pm 19:15 Hazy 75 23.9 49 9.4 40 40 NW 12 19 30.12 1020 5 8.0467 0 0
7:35 pm 19:35 Sunny 73 22.8 49 9.6 43 43 NW 6 9 30.13 1020 7 11.26538 0 0
7:55 pm 19:55 Sunny 71 21.8 50 9.8 47 47 NW 6 9 30.13 1020 10 16.0934 0 0
8:15 pm 20:15 Clear 69 20.3 51 10.3 53 53 NW 6 9 30.14 1021 10 16.0934 0 0
8:35 pm 20:35 Clear 66 19.1 51 10.7 58 58 NW 6 9 30.16 1021 10 16.0934 0 0
8:55 pm 20:55 Clear 64 17.6 53 11.5 68 68 WNW 3 6 30.16 1021 10 16.0934 0 0
9:15 pm 21:15 Clear 61 16 55 12.8 81 81 WNW 3 6 30.18 1022 10 16.0934 0 0
9:35 pm 21:35 Clear 60 15.8 55 12.9 83 83 WNW 3 6 30.19 1023 10 16.0934 0 0
9:55 pm 21:55 Clear 63 17.1 51 10.8 67 67 WNW 6 9 30.19 1022 10 16.0934 0 0
10:15 pm 22:15 Clear 64 17.9 50 9.9 60 60 NW 3 6 30.2 1023 10 16.0934 0 0
10:35 pm 22:35 Clear 65 18.3 49 9.2 56 56 NNW 6 9 30.2 1023 10 16.0934 0 0
10:55 pm 22:55 Clear 64 17.8 49 9.3 58 58 NNW 5 7 30.21 1023 10 16.0934 0 0
11:15 pm 23:15 Clear 63 17 49 9.4 61 61 NNW 5 7 30.22 1023 10 16.0934 0 0
11:35 pm 23:35 Clear 61 16.1 49 9.6 66 66 Calm 30.22 1023 10 16.0934 0 0
11:55 pm 23:55 Clear 60 15.8 50 10 69 69 Calm 30.23 1024 7 11.26538 0 0

Powered by AerisWeather